www.pogodaiklimat.ru

Погода и климат >> Архив погоды >> Греция >> Лариса


ПОГОДА в Ларисе

  • Прогноз погоды в Ларисе
  • Монитор погоды в Ларисе

АРХИВ ПОГОДЫ в Ларисе

Время (UTC), дата Ветер
(напр.,м/с)
 
Видим.   Явления Облачность Т
(С)
Тd
(С)
f
(%)
Тe
(С)
Тes
(С)
Комфортность P
(гПа)
Po
(гПа)
Тmin
(С)
Tmax
(С)
R
(мм)
R24
(мм)
S
(см)
09 13.02 С 11
{20}
10 км 9/4 750 м
[Cu med, cong Ac As]
+6.4 -9.1 32 +1 +1 1022.9 1014.2
12 13.02 С 10
{18}
10 км 9/4 750 м
[Cu med, cong Ac As]
+7.2 -7.9 33 +2 +3 1022.8 1014.5
15 13.02 С 8
{17}
10 км 9/4 750 м
[Sc Ac As]
+6.4 -5.4 43 +2 +2 1024.1 1015.4
18 13.02 С 5
{13}
10 км 9/4 750 м
[Sc Ac As]
+6.8 -4.6 44 +3 +3 1025.9 1017.2 +7.2
21 13.02 С 9
{15}
10 км 9/4 750 м
[Sc Ac As]
+6.8 -6.1 39 +2 +2 1026.5 1017.8
00 14.02 С 11
{16}
10 км 9/4 750 м
[Sc Ac As]
+6.4 -6.7 39 +1 +1 1026.9 1018.2
03 14.02 СВ 7
{16}
10 км 8/4 750 м
[Sc Ac und]
+6.4 -6.8 38 +2 +2 1026.6 1017.8
06 14.02 С 9
{14}
10 км 6/3 750 м
[Sc diur, vesp Ac und]
+5.8 -4.7 47 +1 +1 1027.0 1018.2 +5.6
09 14.02 С 5
{14}
10 км 4/1 600 м
[Cu hum Ac trans Ci fib]
+9.2 -6.7 32 +7 +9 1026.9 1018.2
12 14.02 СЗ 3
{11}
10 км 4/1 600 м
[Cu hum Ac trans Ci fib]
+11.0 -7.6 26 +10 +14 1024.8 1016.2
15 14.02 СВ 5
{10}
10 км 4/1 600 м
[Cu hum Ac trans Ci fib]
+11.0 -3.3 37 +9 +9 1023.8 1015.2
18 14.02 СВ 5
{11}
10 км 1/0
[Ci fib]
+9.4 -3.9 39 +7 +7 1024.1 1015.5 +12.2
21 14.02 СВ 7
{12}
10 км 3/1 600 м
[Cu hum Ac trans]
+7.8 -3.8 44 +4 +4 1024.0 1015.4
00 15.02 З 2
{13}
10 км 3/1 600 м
[Cu hum Ac trans]
+3.0 -3.6 62 0 0 1024.4 1015.6
03 15.02 З 2
{4}
10 км 3/1 600 м
[Cu hum Ac trans]
+1.6 -3.6 68 -1 -1 1023.3 1014.5
06 15.02 СЗ 4
{6}
10 км 6/3 750 м
[Cu hum Ac und]
+2.2 -3.4 66 -2 -2 1023.8 1014.9 +0.6
09 15.02 С 4
{9}
10 км 5/3 750 м
[Cu hum Ac und]
+12.2 -2.9 35 +11 +13 1024.1 1015.5
12 15.02
{16}
10 км 6/4 750 м
[Cu hum Ac und]
+9.6 -3.2 40 1023.7 1015.1
15 15.02 В 4
{14}
10 км слаб. дождь 8/4 750 м
[Sc diur, vesp Ac As]
+6.6 +1.2 68 +3 +3 1025.0 1016.3
18 15.02 СВ 2
{7}
10 км {дождь} 6/3 750 м
[Sc diur, vesp Ac und]
+4.4 +1.7 83 +2 +2 1026.6 1017.8 +12.2 0.5
21 15.02 С 5
{9}
10 км слаб. морось 9/4 750 м
[Cu hum Ac und]
+4.4 +1.7 83 -0 -0 1027.6 1018.8
00 16.02 штиль 0
{9}
10 км 9/4 750 м
[Cu hum Ac und]
+5.0 +0.6 73 +4 +4 1027.8 1019.0 0.1
03 16.02 штиль 0
{6}
10 км 9/4 750 м
[Cu hum Ac und]
+4.4 +1.3 80 +4 +4 1027.6 1018.8
06 16.02 СВ 5
{8}
10 км 9/4 750 м
[Cu hum Ac und]
+6.0 -2.6 54 +2 +2 1028.7 1020.0 +4.4 0.1
09 16.02 СВ 5
{10}
10 км 6/4 750 м
[Sc diur, vesp Ac und]
+8.6 -2.4 46 +6 +7 1029.8 1021.1
12 16.02 СВ 5
{10}
10 км 5/3 750 м
[Cu hum Ac lent]
+10.0 -3.0 40 +7 +9 1029.1 1020.5
15 16.02 ЮВ 2
{8}
10 км 3/0
[Ac lent]
+11.0 -2.2 40 +10 +11 1027.8 1019.2
18 16.02 Ю 3
{5}
10 км ясно +3.8 -0.8 72 +1 +1 1028.6 1019.8 +11.8
21 16.02 Ю 2
{4}
10 км ясно +0.8 -1.3 86 -3 -3 1029.6 1020.7
00 17.02 штиль 0
{3}
10 км ясно -1.2 -2.3 92 -2 -2 1029.5 1020.5
03 17.02 штиль 0
{2}
10 км ясно -3.0 -6.8 75 -4 -4 1029.1 1020.1
06 17.02 штиль 0
{3}
10 км ясно -4.2 -4.9 95 -5 -5 1029.7 1020.6 -4.6
09 17.02 штиль 0
{2}
10 км ясно +7.0 +0.3 62 +7 +16 опасность
простуды
1029.5 1020.7
12 17.02 штиль 0
{3}
10 км 4/0
[Ci fib]
+11.8 +0.2 45 +12 +21 1027.3 1018.7
15 17.02 штиль 0
{4}
10 км 4/0
[Ci fib]
+13.4 -0.4 39 +13 +14 1025.3 1016.8
18 17.02 штиль 0
{2}
10 км ясно +6.8 +0.4 64 +6 +6 1025.5 1016.8 +13.4
21 17.02 штиль 0
{2}
10 км ясно +2.8 -0.4 79 +2 +2 1026.3 1017.5
00 18.02 штиль 0
{2}
10 км ясно -1.2 -3.3 86 -2 -2 1026.2 1017.3
03 18.02 штиль 0
{2}
10 км ясно -1.6 -2.7 92 -3 -3 1025.7 1016.7
06 18.02 штиль 0
{2}
10 км ясно -0.8 -2.0 92 -2 -1 1026.3 1017.4 -2.0
09 18.02 штиль 0
{2}
10 км ясно +8.6 +2.0 63 +8 +18 опасность
простуды
1026.2 1017.6
12 18.02 штиль 0
{3}
10 км ясно +14.4 +1.6 42 +14 +24 1024.4 1016.0
15 18.02 штиль 0
{2}
10 км ясно +16.4 +1.7 37 +16 +17 1022.7 1014.3
18 18.02 В 3
{4}
10 км ясно +9.0 +0.5 55 +7 +7 1023.2 1014.5 +16.6
21 18.02 штиль 0
{3}
10 км ясно +3.8 0.0 76 +3 +3 1024.1 1015.3
00 19.02 штиль 0
{2}
10 км ясно +2.6 -0.2 82 +2 +2 1024.1 1015.3
03 19.02 штиль 0
{2}
10 км ясно +0.4 -1.0 90 -1 -1 1023.5 1014.6
06 19.02 штиль 0
{2}
10 км ясно -1.2 -2.1 94 -3 -2 1024.1 1015.2 -1.2
09 19.02 штиль 0
{2}
10 км ясно +10.0 +2.7 60 +10 +20 опасность
простуды
1024.1 1015.5
15 19.02 штиль 0
{3}
10 км ясно +17.0 +1.6 35 +17 +18 1020.3 1012.0
18 19.02 В 3
{4}
10 км ясно +7.8 +5.6 86 +5 +5 1021.0 1012.4 +17.3
21 19.02 штиль 0
{4}
10 км ясно +4.6 +3.4 92 +3 +3 1021.5 1012.8
00 20.02 штиль 0
{2}
10 км ясно +3.4 +2.6 94 +2 +2 1021.1 1012.3
03 20.02 штиль 0
{3}
8000 м дымка ясно +0.6 +0.3 98 -1 -1 1020.7 1011.8

 

Местоположение метеостанции Лариса (Греция): широта 39.63 долгота 22.42 высота над уровнем моря 74 м.

В архиве по умолчанию представлена погода в Ларисе за последнюю неделю. Архивные данные за месяц целиком и за предыдущие месяцы, начиная с января 2011 года, Вы можете получить, выбрав интересующий диапазон дат из раскрывающегося списка и нажав кнопку "Ввод!".


*Определитесь, кто Вы:
робот инопланетянин человек

Внимание! Время в таблицах - всемирное. Для получения местного времени необходимо прибавить поправку, которая равна 2 ч.

Смотрите также архив погоды в соседних городах и на ближайших метеорологических станциях:

Погода в Ламии (Греция) (81 км)
Погода в Козани (Греция) (92 км)
Погода в Салониках (Греция) (110 км)
Погода в Кастории (Греция) (133 км)
Погода в Янине (Греция) (137 км)
Погода во Флорине (Греция) (154 км)
Погода в Гевгелии (Македония) (169 км)
Погода в Корке (Албания) (177 км)
Погода в Преторе (Македония) (178 км)
Погода в Битоле (Македония) (181 км)

Пояснения к столбцам:

Ветер - указаны скорость ветра в м/с - средняя за 10 мин, порывы в срок и между сроками (в фигурных скобках) и направление, откуда дует ветер: С - северный, СВ - северо-восточный, В - восточный, ЮВ - юго-восточный, Ю - южный, ЮЗ - юго-западный, З - западный, СЗ - северо-западный.
Видимость - горизонтальная дальность видимости в метрах или километрах. При видимости от 1 до 10 км при отсутствии осадков обычно наблюдается дымка, при ухудшении видимости до 1 км и менее - туман. В сухую погоду видимость может ухудшаться дымом, пылью или мглою.
Явления - указаны атмосферные явления, наблюдавшиеся в срок или в последний час перед сроком; фигурными скобками обозначены явления, наблюдавшиеся между сроками (за 1-3 часа до срока); квадратными скобками обозначены град или гололедные отложения с указанием их диаметра в мм.
Облачность - указаны через наклонную черту общая и нижняя облачность в баллах и высота нижней границы облаков в метрах; квадратными скобками обозначены формы облаков: Ci - перистые, Cs - перисто-слоистые, Cc - перисто-кучевые, Ac - высококучевые, As - высокослоистые, Sc - слоисто-кучевые, Ns - слоисто-дождевые, Cu - кучевые, Cb - кучево-дождевые. Подробнее классификацию облаков см. в Атласе облаков (PDF).
T - Температура воздуха - температура, измеренная на высоте 2 м над землей.
Td - Температура точки росы - температура, при понижении до которой содержащийся в воздухе водяной пар достигнет насыщения.
f - Относительная влажность воздуха - влажноcть воздуха, измеренная на высоте 2 м над землей.
Te - Эффективная температура - температура, которую ощущает одетый по сезону человек в тени. Характеристика душности погоды. При расчете учитывается влияние влажности воздуха и скорости ветра на теплоощущения человека.
Tes - Эффективная температура на солнце - температура, которую ощущает человек, с поправкой на солнечный нагрев. Характеристика знойности погоды. Зависит от высоты солнца над горизонтом, облачности и скорости ветра. Ночью, в пасмурную погоду, а также при ветре 12 м/с и более поправка равна нулю.
P - Атмосферное давление - приведенное к уровню моря атмосферное давление.
Po - Атмосферное давление - измеренное на уровне метеостанции атмосферное давление.
Tmin - Минимальная температура - минимум температуры воздуха на высоте 2 м над землей.
Tmax - Максимальная температура - максимум температуры воздуха на высоте 2 м над землей.
R - Количество осадков - Количество выпавших осадков за период времени, мм. При наведении курсора мыши на число - период времени, за который выпало указанное количество осадков.
R24 - Количество осадков - Количество выпавших осадков за 24 часа, мм.
S - Снежный покров - Высота снежного покрова, см. При наведении курсора мыши на число - состояние снежного покрова и степень покрытия местности в баллах.